This is the latest recevied weather packets stored in our database for station/object K4CRS-13. If no packets are shown the sender has not sent any weather packets the latest 10 day(s).
| Time | Temp. | Humidity | Pressure | Rain* | Wind** | Luminosity | Snow |
|---|---|---|---|---|---|---|---|
| 1787640212 | 20.56° C | 82% | 1051.8 hPa | 0 mm | - | 0 W/m² | - |
| 1787639906 | 20.56° C | 82% | 1051.7 hPa | 0 mm | - | 0 W/m² | - |
| 1787639603 | 20.56° C | 81% | 1051.7 hPa | 0 mm | - | 0 W/m² | - |
| 1787639303 | 21.11° C | 81% | 1052.1 hPa | 0 mm | - | 0 W/m² | - |
| 1787638998 | 21.11° C | 78% | 1052 hPa | 0 mm | - | 0 W/m² | - |
| 1787638693 | 21.11° C | 78% | 1052 hPa | 0 mm | - | 0 W/m² | - |
| 1787638389 | 21.11° C | 78% | 1051.8 hPa | 0 mm | - | 0 W/m² | - |
| 1787638084 | 21.11° C | 78% | 1051.8 hPa | 0 mm | - | 0 W/m² | - |
| 1787637781 | 21.11° C | 78% | 1051.9 hPa | 0 mm | - | 0 W/m² | - |
| 1787637479 | 21.11° C | 78% | 1051.9 hPa | 0 mm | - | 0 W/m² | - |
| 1787637174 | 21.67° C | 78% | 1052 hPa | 0 mm | - | 0 W/m² | - |
| 1787636873 | 21.67° C | 76% | 1051.9 hPa | 0 mm | - | 0 W/m² | - |
| 1787636568 | 21.67° C | 77% | 1052.2 hPa | 0 mm | - | 0 W/m² | - |
| 1787636268 | 21.67° C | 77% | 1052.2 hPa | 0 mm | - | 0 W/m² | - |
| 1787635963 | 21.11° C | 78% | 1052 hPa | 0 mm | - | 0 W/m² | - |
| 1787635658 | 21.11° C | 79% | 1052 hPa | 0 mm | - | 0 W/m² | - |
| 1787635355 | 21.11° C | 79% | 1052.1 hPa | 0 mm | - | 0 W/m² | - |
| 1787635054 | 21.11° C | 79% | 1052.2 hPa | 0 mm | - | 0 W/m² | - |
| 1787634749 | 21.11° C | 80% | 1052.3 hPa | 0 mm | - | 0 W/m² | - |
| 1787634444 | 21.11° C | 80% | 1052.4 hPa | 0 mm | - | 0 W/m² | - |
| 1787634140 | 20.56° C | 82% | 1052.4 hPa | 0 mm | - | 0 W/m² | - |
| 1787633836 | 20.56° C | 82% | 1052.2 hPa | 0 mm | - | 0 W/m² | - |
| 1787633532 | 20.56° C | 82% | 1052.1 hPa | 0 mm | - | 0 W/m² | - |
| 1787633227 | 21.11° C | 82% | 1052.1 hPa | 0 mm | - | 0 W/m² | - |
| 1787632924 | 21.11° C | 83% | 1052.2 hPa | 0 mm | - | 0 W/m² | - |
* Rain latest hour (hover to see other rain measurements)
** Current wind speed in m/s (hover to see current wind gust speed)